Вернуться в каталог

FENGYUN 1C DEB

АктивенSSO
NORAD 30599·DEBRIS·🇨🇳 China

Запущен May 10, 1999 с Taiyuan Satellite Launch Center

Loading…

Ближайшие Пролёты (ближайшие 24 часа)

TLE

СвежийSource: Space-Track

Эпоха: Sep 14, 2026, 23:28 UTC

1 30599U 99025AME 26257.97795835  .00000856  00000-0  26946-3 0  9995
2 30599  98.5981 267.4521 0298062 264.3725  92.3397 14.20732509 10873

Отслеживайте FENGYUN 1C DEB в реальном времени с AllMySat

Download on the App Store